"Time","Value","Approval","myLocation"
"2023-04-25 00:00",12.268,"Working","OW484"
"2023-04-25 01:00",12.3,"Working","OW484"
"2023-04-25 02:00",12.288,"Working","OW484"
"2023-04-25 03:00",12.28,"Working","OW484"
"2023-04-25 04:00",12.282,"Working","OW484"
"2023-04-25 05:00",12.279,"Working","OW484"
"2023-04-25 06:00",12.28,"Working","OW484"
"2023-04-25 07:00",12.277,"Working","OW484"
"2023-04-25 08:00",12.278,"Working","OW484"
"2023-04-25 09:00",12.276,"Working","OW484"
"2023-04-25 10:00",12.278,"Working","OW484"
"2023-04-25 11:00",12.278,"Working","OW484"
"2023-04-25 12:00",12.281,"Working","OW484"
"2023-04-25 13:00",12.278,"Working","OW484"
"2023-04-25 14:00",12.281,"Working","OW484"
"2023-04-25 15:00",12.278,"Working","OW484"
"2023-04-25 16:00",12.282,"Working","OW484"
"2023-04-25 17:00",12.276,"Working","OW484"
"2023-04-25 18:00",12.281,"Working","OW484"
"2023-04-25 19:00",12.278,"Working","OW484"
"2023-04-25 20:00",12.278,"Working","OW484"
"2023-04-25 21:00",12.276,"Working","OW484"
"2023-04-25 22:00",12.279,"Working","OW484"
"2023-04-25 23:00",12.275,"Working","OW484"
"2023-04-26 00:00",12.277,"Working","OW484"
"2023-04-26 01:00",12.333,"Working","OW484"
"2023-04-26 02:00",12.307,"Working","OW484"
"2023-04-26 03:00",12.294,"Working","OW484"
"2023-04-26 04:00",12.33,"Working","OW484"
"2023-04-26 05:00",12.308,"Working","OW484"
"2023-04-26 06:00",12.302,"Working","OW484"
"2023-04-26 07:00",12.294,"Working","OW484"
"2023-04-26 08:00",12.291,"Working","OW484"
"2023-04-26 09:00",12.288,"Working","OW484"
"2023-04-26 10:00",12.288,"Working","OW484"
"2023-04-26 11:00",12.283,"Working","OW484"
"2023-04-26 12:00",12.285,"Working","OW484"
"2023-04-26 13:00",12.286,"Working","OW484"
"2023-04-26 14:00",12.285,"Working","OW484"
"2023-04-26 15:00",12.282,"Working","OW484"
"2023-04-26 16:00",12.284,"Working","OW484"
"2023-04-26 17:00",12.284,"Working","OW484"
"2023-04-26 18:00",12.318,"Working","OW484"
"2023-04-26 19:00",12.299,"Working","OW484"
"2023-04-26 20:00",12.321,"Working","OW484"
"2023-04-26 21:00",12.312,"Working","OW484"
"2023-04-26 22:00",12.336,"Working","OW484"
"2023-04-26 23:00",12.313,"Working","OW484"
"2023-04-27 00:00",12.309,"Working","OW484"
"2023-04-27 01:00",12.304,"Working","OW484"
"2023-04-27 02:00",12.306,"Working","OW484"
"2023-04-27 03:00",12.362,"Working","OW484"
"2023-04-27 04:00",12.336,"Working","OW484"
"2023-04-27 05:00",12.324,"Working","OW484"
"2023-04-27 06:00",12.32,"Working","OW484"
"2023-04-27 07:00",12.316,"Working","OW484"
"2023-04-27 08:00",12.317,"Working","OW484"
"2023-04-27 09:00",12.312,"Working","OW484"
"2023-04-27 10:00",12.314,"Working","OW484"
"2023-04-27 11:00",12.311,"Working","OW484"
"2023-04-27 12:00",12.314,"Working","OW484"
"2023-04-27 13:00",12.313,"Working","OW484"
"2023-04-27 14:00",12.319,"Working","OW484"
"2023-04-27 15:00",12.351,"Working","OW484"
"2023-04-27 16:00",12.384,"Working","OW484"
"2023-04-27 17:00",12.421,"Working","OW484"
"2023-04-27 18:00",12.37,"Working","OW484"
"2023-04-27 19:00",12.348,"Working","OW484"
"2023-04-27 20:00",12.351,"Working","OW484"
"2023-04-27 21:00",12.355,"Working","OW484"
"2023-04-27 22:00",12.34,"Working","OW484"
"2023-04-27 23:00",12.329,"Working","OW484"
"2023-04-28 00:00",12.326,"Working","OW484"
"2023-04-28 01:00",12.319,"Working","OW484"
"2023-04-28 02:00",12.317,"Working","OW484"
"2023-04-28 03:00",12.351,"Working","OW484"
"2023-04-28 04:00",12.346,"Working","OW484"
"2023-04-28 05:00",12.37,"Working","OW484"
"2023-04-28 06:00",12.411,"Working","OW484"
"2023-04-28 07:00",12.364,"Working","OW484"
"2023-04-28 08:00",12.35,"Working","OW484"
"2023-04-28 09:00",12.338,"Working","OW484"
"2023-04-28 10:00",12.333,"Working","OW484"
"2023-04-28 11:00",12.327,"Working","OW484"
"2023-04-28 12:00",12.326,"Working","OW484"
"2023-04-28 13:00",12.322,"Working","OW484"
"2023-04-28 14:00",12.323,"Working","OW484"
"2023-04-28 15:00",12.32,"Working","OW484"
"2023-04-28 16:00",12.362,"Working","OW484"
"2023-04-28 17:00",12.338,"Working","OW484"
"2023-04-28 18:00",12.354,"Working","OW484"
"2023-04-28 19:00",12.375,"Working","OW484"
"2023-04-28 20:00",12.34,"Working","OW484"
"2023-04-28 21:00",12.322,"Working","OW484"
"2023-04-28 22:00",12.31,"Working","OW484"
"2023-04-28 23:00",12.301,"Working","OW484"
"2023-04-29 00:00",12.293,"Working","OW484"
"2023-04-29 01:00",12.287,"Working","OW484"
"2023-04-29 02:00",12.303,"Working","OW484"
"2023-04-29 03:00",12.339,"Working","OW484"
"2023-04-29 04:00",12.319,"Working","OW484"
"2023-04-29 05:00",12.348,"Working","OW484"
"2023-04-29 06:00",12.329,"Working","OW484"
"2023-04-29 07:00",12.316,"Working","OW484"
"2023-04-29 08:00",12.317,"Working","OW484"
"2023-04-29 09:00",12.312,"Working","OW484"
"2023-04-29 10:00",12.313,"Working","OW484"
"2023-04-29 11:00",12.308,"Working","OW484"
"2023-04-29 12:00",12.313,"Working","OW484"
"2023-04-29 13:00",12.311,"Working","OW484"
"2023-04-29 14:00",12.316,"Working","OW484"
"2023-04-29 15:00",12.317,"Working","OW484"
"2023-04-29 16:00",12.321,"Working","OW484"
"2023-04-29 17:00",12.359,"Working","OW484"
"2023-04-29 18:00",12.343,"Working","OW484"
"2023-04-29 19:00",12.333,"Working","OW484"
"2023-04-29 20:00",12.332,"Working","OW484"
"2023-04-29 21:00",12.324,"Working","OW484"
"2023-04-29 22:00",12.325,"Working","OW484"
"2023-04-29 23:00",12.318,"Working","OW484"
"2023-04-30 00:00",12.411,"Working","OW484"
"2023-04-30 01:00",12.387,"Working","OW484"
"2023-04-30 02:00",12.36,"Working","OW484"
"2023-04-30 03:00",12.344,"Working","OW484"
"2023-04-30 04:00",12.409,"Working","OW484"
"2023-04-30 05:00",12.368,"Working","OW484"
"2023-04-30 06:00",12.358,"Working","OW484"
"2023-04-30 07:00",12.349,"Working","OW484"
"2023-04-30 08:00",12.348,"Working","OW484"
"2023-04-30 09:00",12.341,"Working","OW484"
"2023-04-30 10:00",12.343,"Working","OW484"
"2023-04-30 11:00",12.34,"Working","OW484"
"2023-04-30 12:00",12.341,"Working","OW484"
"2023-04-30 13:00",12.34,"Working","OW484"
"2023-04-30 14:00",12.344,"Working","OW484"
"2023-04-30 15:00",12.343,"Working","OW484"
"2023-04-30 16:00",12.348,"Working","OW484"
"2023-04-30 17:00",12.398,"Working","OW484"
"2023-04-30 18:00",12.373,"Working","OW484"
"2023-04-30 19:00",12.363,"Working","OW484"
"2023-04-30 20:00",12.361,"Working","OW484"
"2023-04-30 21:00",12.367,"Working","OW484"
"2023-04-30 22:00",12.382,"Working","OW484"
"2023-04-30 23:00",12.365,"Working","OW484"
"2023-05-01 00:00",12.375,"Working","OW484"
"2023-05-01 01:00",12.383,"Working","OW484"
"2023-05-01 02:00",12.392,"Working","OW484"
"2023-05-01 03:00",12.399,"Working","OW484"
"2023-05-01 04:00",12.472,"Working","OW484"
"2023-05-01 05:00",12.414,"Working","OW484"
"2023-05-01 06:00",12.399,"Working","OW484"
"2023-05-01 07:00",12.388,"Working","OW484"
"2023-05-01 08:00",12.386,"Working","OW484"
"2023-05-01 09:00",12.379,"Working","OW484"
"2023-05-01 10:00",12.378,"Working","OW484"
"2023-05-01 11:00",12.374,"Working","OW484"
"2023-05-01 12:00",12.374,"Working","OW484"
"2023-05-01 13:00",12.369,"Working","OW484"
"2023-05-01 14:00",12.371,"Working","OW484"
"2023-05-01 15:00",12.37,"Working","OW484"
"2023-05-01 16:00",12.427,"Working","OW484"
"2023-05-01 17:00",12.39,"Working","OW484"
"2023-05-01 18:00",12.385,"Working","OW484"
"2023-05-01 19:00",12.378,"Working","OW484"
"2023-05-01 20:00",12.431,"Working","OW484"
"2023-05-01 21:00",12.395,"Working","OW484"
"2023-05-01 22:00",12.387,"Working","OW484"
"2023-05-01 23:00",12.379,"Working","OW484"
"2023-05-02 00:00",12.379,"Working","OW484"
"2023-05-02 01:00",12.376,"Working","OW484"
"2023-05-02 02:00",12.378,"Working","OW484"
"2023-05-02 03:00",12.409,"Working","OW484"
"2023-05-02 04:00",12.396,"Working","OW484"
"2023-05-02 05:00",12.454,"Working","OW484"
"2023-05-02 06:00",12.422,"Working","OW484"
"2023-05-02 07:00",12.405,"Working","OW484"
"2023-05-02 08:00",12.408,"Working","OW484"
"2023-05-02 09:00",12.396,"Working","OW484"
"2023-05-02 10:00",12.4,"Working","OW484"
"2023-05-02 11:00",12.4,"Working","OW484"
"2023-05-02 12:00",12.391,"Working","OW484"
"2023-05-02 13:00",12.384,"Working","OW484"
"2023-05-02 14:00",12.385,"Working","OW484"
"2023-05-02 15:00",12.382,"Working","OW484"
"2023-05-02 16:00",12.383,"Working","OW484"
"2023-05-02 17:00",12.379,"Working","OW484"
"2023-05-02 18:00",12.385,"Working","OW484"
"2023-05-02 19:00",12.407,"Working","OW484"
"2023-05-02 20:00",12.391,"Working","OW484"
"2023-05-02 21:00",12.382,"Working","OW484"
"2023-05-02 22:00",12.412,"Working","OW484"
"2023-05-02 23:00",12.386,"Working","OW484"
"2023-05-03 00:00",12.384,"Working","OW484"
"2023-05-03 01:00",12.381,"Working","OW484"
"2023-05-03 02:00",12.438,"Working","OW484"
"2023-05-03 03:00",12.406,"Working","OW484"
"2023-05-03 04:00",12.445,"Working","OW484"
"2023-05-03 05:00",12.464,"Working","OW484"
"2023-05-03 06:00",12.439,"Working","OW484"
"2023-05-03 07:00",12.427,"Working","OW484"
"2023-05-03 08:00",12.427,"Working","OW484"
"2023-05-03 09:00",12.423,"Working","OW484"
"2023-05-03 10:00",12.425,"Working","OW484"
"2023-05-03 11:00",12.421,"Working","OW484"
"2023-05-03 12:00",12.422,"Working","OW484"
"2023-05-03 13:00",12.417,"Working","OW484"
"2023-05-03 14:00",12.418,"Working","OW484"
"2023-05-03 15:00",12.414,"Working","OW484"
"2023-05-03 16:00",12.415,"Working","OW484"
"2023-05-03 17:00",12.41,"Working","OW484"
"2023-05-03 18:00",12.468,"Working","OW484"
"2023-05-03 19:00",12.431,"Working","OW484"
"2023-05-03 20:00",12.456,"Working","OW484"
"2023-05-03 21:00",12.441,"Working","OW484"
"2023-05-03 22:00",12.429,"Working","OW484"
"2023-05-03 23:00",12.416,"Working","OW484"
"2023-05-04 00:00",12.487,"Working","OW484"
"2023-05-04 01:00",12.462,"Working","OW484"
"2023-05-04 02:00",12.441,"Working","OW484"
"2023-05-04 03:00",12.43,"Working","OW484"
"2023-05-04 04:00",12.462,"Working","OW484"
"2023-05-04 05:00",12.447,"Working","OW484"
"2023-05-04 06:00",12.448,"Working","OW484"
"2023-05-04 07:00",12.444,"Working","OW484"
"2023-05-04 08:00",12.447,"Working","OW484"
"2023-05-04 09:00",12.444,"Working","OW484"
"2023-05-04 10:00",12.449,"Working","OW484"
"2023-05-04 11:00",12.442,"Working","OW484"
"2023-05-04 12:00",12.439,"Working","OW484"
"2023-05-04 13:00",12.443,"Working","OW484"
"2023-05-04 14:00",12.442,"Working","OW484"
"2023-05-04 15:00",12.438,"Working","OW484"
"2023-05-04 16:00",12.438,"Working","OW484"
"2023-05-04 17:00",12.439,"Working","OW484"
"2023-05-04 18:00",12.483,"Working","OW484"
"2023-05-04 19:00",12.459,"Working","OW484"
"2023-05-04 20:00",12.452,"Working","OW484"
"2023-05-04 21:00",12.446,"Working","OW484"
"2023-05-04 22:00",12.445,"Working","OW484"
"2023-05-04 23:00",12.443,"Working","OW484"
"2023-05-05 00:00",12.445,"Working","OW484"
"2023-05-05 01:00",12.442,"Working","OW484"
"2023-05-05 02:00",12.447,"Working","OW484"
"2023-05-05 03:00",12.446,"Working","OW484"
"2023-05-05 04:00",12.451,"Working","OW484"
"2023-05-05 05:00",12.452,"Working","OW484"
"2023-05-05 06:00",12.46,"Working","OW484"
"2023-05-05 07:00",12.463,"Working","OW484"
"2023-05-05 08:00",12.467,"Working","OW484"
"2023-05-05 09:00",12.464,"Working","OW484"
"2023-05-05 10:00",12.468,"Working","OW484"
"2023-05-05 11:00",12.464,"Working","OW484"
"2023-05-05 12:00",12.47,"Working","OW484"
"2023-05-05 13:00",12.466,"Working","OW484"
"2023-05-05 14:00",12.463,"Working","OW484"
"2023-05-05 15:00",12.456,"Working","OW484"
"2023-05-05 16:00",12.454,"Working","OW484"
"2023-05-05 17:00",12.448,"Working","OW484"
"2023-05-05 18:00",12.449,"Working","OW484"
"2023-05-05 19:00",12.445,"Working","OW484"
"2023-05-05 20:00",12.446,"Working","OW484"
"2023-05-05 21:00",12.443,"Working","OW484"
"2023-05-05 22:00",12.445,"Working","OW484"
"2023-05-05 23:00",12.438,"Working","OW484"
"2023-05-06 00:00",12.437,"Working","OW484"
"2023-05-06 01:00",12.432,"Working","OW484"
"2023-05-06 02:00",12.431,"Working","OW484"
"2023-05-06 03:00",12.425,"Working","OW484"
"2023-05-06 04:00",12.427,"Working","OW484"
"2023-05-06 05:00",12.423,"Working","OW484"
"2023-05-06 06:00",12.423,"Working","OW484"
"2023-05-06 07:00",12.42,"Working","OW484"
"2023-05-06 08:00",12.423,"Working","OW484"
"2023-05-06 09:00",12.418,"Working","OW484"
"2023-05-06 10:00",12.421,"Working","OW484"
"2023-05-06 11:00",12.417,"Working","OW484"
"2023-05-06 12:00",12.42,"Working","OW484"
"2023-05-06 13:00",12.416,"Working","OW484"
"2023-05-06 14:00",12.417,"Working","OW484"
"2023-05-06 15:00",12.414,"Working","OW484"
"2023-05-06 16:00",12.418,"Working","OW484"
"2023-05-06 17:00",12.416,"Working","OW484"
"2023-05-06 18:00",12.42,"Working","OW484"
"2023-05-06 19:00",12.418,"Working","OW484"
"2023-05-06 20:00",12.423,"Working","OW484"
"2023-05-06 21:00",12.422,"Working","OW484"
"2023-05-06 22:00",12.427,"Working","OW484"
"2023-05-06 23:00",12.424,"Working","OW484"
"2023-05-07 00:00",12.426,"Working","OW484"
"2023-05-07 01:00",12.425,"Working","OW484"
"2023-05-07 02:00",12.429,"Working","OW484"
"2023-05-07 03:00",12.426,"Working","OW484"
"2023-05-07 04:00",12.43,"Working","OW484"
"2023-05-07 05:00",12.426,"Working","OW484"
"2023-05-07 06:00",12.43,"Working","OW484"
"2023-05-07 07:00",12.428,"Working","OW484"
"2023-05-07 08:00",12.432,"Working","OW484"
"2023-05-07 09:00",12.431,"Working","OW484"
"2023-05-07 10:00",12.435,"Working","OW484"
"2023-05-07 11:00",12.433,"Working","OW484"
"2023-05-07 12:00",12.436,"Working","OW484"
"2023-05-07 13:00",12.433,"Working","OW484"
"2023-05-07 14:00",12.436,"Working","OW484"
"2023-05-07 15:00",12.436,"Working","OW484"
"2023-05-07 16:00",12.439,"Working","OW484"
"2023-05-07 17:00",12.436,"Working","OW484"
"2023-05-07 18:00",12.439,"Working","OW484"
"2023-05-07 19:00",12.437,"Working","OW484"
"2023-05-07 20:00",12.441,"Working","OW484"
"2023-05-07 21:00",12.441,"Working","OW484"
"2023-05-07 22:00",12.446,"Working","OW484"
"2023-05-07 23:00",12.443,"Working","OW484"
"2023-05-08 00:00",12.446,"Working","OW484"
"2023-05-08 01:00",12.443,"Working","OW484"
"2023-05-08 02:00",12.444,"Working","OW484"
"2023-05-08 03:00",12.441,"Working","OW484"
"2023-05-08 04:00",12.568,"Working","OW484"
"2023-05-08 05:00",12.539,"Working","OW484"
"2023-05-08 06:00",12.507,"Working","OW484"
"2023-05-08 07:00",12.483,"Working","OW484"
"2023-05-08 08:00",12.475,"Working","OW484"
"2023-05-08 09:00",12.467,"Working","OW484"
"2023-05-08 10:00",12.466,"Working","OW484"
"2023-05-08 11:00",12.46,"Working","OW484"
"2023-05-08 12:00",12.461,"Working","OW484"
"2023-05-08 13:00",12.457,"Working","OW484"
"2023-05-08 14:00",12.461,"Working","OW484"
"2023-05-08 15:00",12.457,"Working","OW484"
"2023-05-08 16:00",12.515,"Working","OW484"
"2023-05-08 17:00",12.478,"Working","OW484"
"2023-05-08 18:00",12.532,"Working","OW484"
"2023-05-08 19:00",12.489,"Working","OW484"
"2023-05-08 20:00",12.481,"Working","OW484"
"2023-05-08 21:00",12.511,"Working","OW484"
"2023-05-08 22:00",12.493,"Working","OW484"
"2023-05-08 23:00",12.483,"Working","OW484"
"2023-05-09 00:00",12.483,"Working","OW484"
"2023-05-09 01:00",12.485,"Working","OW484"
"2023-05-09 02:00",12.507,"Working","OW484"
"2023-05-09 03:00",12.493,"Working","OW484"
"2023-05-09 04:00",12.546,"Working","OW484"
"2023-05-09 05:00",12.586,"Working","OW484"
"2023-05-09 06:00",12.536,"Working","OW484"
"2023-05-09 07:00",12.517,"Working","OW484"
"2023-05-09 08:00",12.511,"Working","OW484"
"2023-05-09 09:00",12.505,"Working","OW484"
"2023-05-09 10:00",12.508,"Working","OW484"
"2023-05-09 11:00",12.505,"Working","OW484"
"2023-05-09 12:00",12.506,"Working","OW484"
"2023-05-09 13:00",12.506,"Working","OW484"
"2023-05-09 14:00",12.508,"Working","OW484"
"2023-05-09 15:00",12.506,"Working","OW484"
"2023-05-09 16:00",12.507,"Working","OW484"
"2023-05-09 17:00",12.504,"Working","OW484"
"2023-05-09 18:00",12.506,"Working","OW484"
"2023-05-09 19:00",12.504,"Working","OW484"
"2023-05-09 20:00",12.507,"Working","OW484"
"2023-05-09 21:00",12.565,"Working","OW484"
"2023-05-09 22:00",12.533,"Working","OW484"
"2023-05-09 23:00",12.521,"Working","OW484"
"2023-05-10 00:00",12.573,"Working","OW484"
"2023-05-10 01:00",12.546,"Working","OW484"
"2023-05-10 02:00",12.535,"Working","OW484"
"2023-05-10 03:00",12.531,"Working","OW484"
"2023-05-10 04:00",12.556,"Working","OW484"
"2023-05-10 05:00",12.54,"Working","OW484"
"2023-05-10 06:00",12.536,"Working","OW484"
"2023-05-10 07:00",12.528,"Working","OW484"
"2023-05-10 08:00",12.529,"Working","OW484"
"2023-05-10 09:00",12.525,"Working","OW484"
"2023-05-10 10:00",12.527,"Working","OW484"
"2023-05-10 11:00",12.526,"Working","OW484"
"2023-05-10 12:00",12.53,"Working","OW484"
"2023-05-10 13:00",12.526,"Working","OW484"
"2023-05-10 14:00",12.562,"Working","OW484"
"2023-05-10 15:00",12.545,"Working","OW484"
"2023-05-10 16:00",12.543,"Working","OW484"
"2023-05-10 17:00",12.537,"Working","OW484"
"2023-05-10 18:00",12.539,"Working","OW484"
"2023-05-10 19:00",12.536,"Working","OW484"
"2023-05-10 20:00",12.534,"Working","OW484"
"2023-05-10 21:00",12.532,"Working","OW484"
"2023-05-10 22:00",12.529,"Working","OW484"
"2023-05-10 23:00",12.528,"Working","OW484"
"2023-05-11 00:00",12.527,"Working","OW484"
"2023-05-11 01:00",12.574,"Working","OW484"
"2023-05-11 02:00",12.549,"Working","OW484"
"2023-05-11 03:00",12.54,"Working","OW484"
"2023-05-11 04:00",12.538,"Working","OW484"
"2023-05-11 05:00",12.648,"Working","OW484"
"2023-05-11 06:00",12.58,"Working","OW484"
"2023-05-11 07:00",12.561,"Working","OW484"
"2023-05-11 08:00",12.55,"Working","OW484"
"2023-05-11 09:00",12.543,"Working","OW484"
"2023-05-11 10:00",12.539,"Working","OW484"
"2023-05-11 11:00",12.537,"Working","OW484"
"2023-05-11 12:00",12.535,"Working","OW484"
"2023-05-11 13:00",12.534,"Working","OW484"
"2023-05-11 14:00",12.534,"Working","OW484"
"2023-05-11 15:00",12.534,"Working","OW484"
"2023-05-11 16:00",12.589,"Working","OW484"
"2023-05-11 17:00",12.555,"Working","OW484"
"2023-05-11 18:00",12.543,"Working","OW484"
"2023-05-11 19:00",12.536,"Working","OW484"
"2023-05-11 20:00",12.531,"Working","OW484"
"2023-05-11 21:00",12.526,"Working","OW484"
"2023-05-11 22:00",12.543,"Working","OW484"
"2023-05-11 23:00",12.543,"Working","OW484"
"2023-05-12 00:00",12.536,"Working","OW484"
"2023-05-12 01:00",12.532,"Working","OW484"
"2023-05-12 02:00",12.598,"Working","OW484"
"2023-05-12 03:00",12.593,"Working","OW484"
"2023-05-12 04:00",12.574,"Working","OW484"
"2023-05-12 05:00",12.565,"Working","OW484"
"2023-05-12 06:00",12.615,"Working","OW484"
"2023-05-12 07:00",12.584,"Working","OW484"
"2023-05-12 08:00",12.579,"Working","OW484"
"2023-05-12 09:00",12.573,"Working","OW484"
"2023-05-12 10:00",12.575,"Working","OW484"
"2023-05-12 11:00",12.572,"Working","OW484"
"2023-05-12 12:00",12.577,"Working","OW484"
"2023-05-12 13:00",12.575,"Working","OW484"
"2023-05-12 14:00",12.582,"Working","OW484"
"2023-05-12 15:00",12.581,"Working","OW484"
"2023-05-12 16:00",12.648,"Working","OW484"
"2023-05-12 17:00",12.612,"Working","OW484"
"2023-05-12 18:00",12.607,"Working","OW484"
"2023-05-12 19:00",12.599,"Working","OW484"
"2023-05-12 20:00",12.63,"Working","OW484"
"2023-05-12 21:00",12.61,"Working","OW484"
"2023-05-12 22:00",12.608,"Working","OW484"
"2023-05-12 23:00",12.613,"Working","OW484"
"2023-05-13 00:00",12.631,"Working","OW484"
"2023-05-13 01:00",12.617,"Working","OW484"
"2023-05-13 02:00",12.654,"Working","OW484"
"2023-05-13 03:00",12.651,"Working","OW484"
"2023-05-13 04:00",12.659,"Working","OW484"
"2023-05-13 05:00",12.644,"Working","OW484"
"2023-05-13 06:00",12.644,"Working","OW484"
"2023-05-13 07:00",12.638,"Working","OW484"
"2023-05-13 08:00",12.641,"Working","OW484"
"2023-05-13 09:00",12.638,"Working","OW484"
"2023-05-13 10:00",12.641,"Working","OW484"
"2023-05-13 11:00",12.638,"Working","OW484"
"2023-05-13 12:00",12.643,"Working","OW484"
"2023-05-13 13:00",12.642,"Working","OW484"
"2023-05-13 14:00",12.648,"Working","OW484"
"2023-05-13 15:00",12.674,"Working","OW484"
"2023-05-13 16:00",12.667,"Working","OW484"
"2023-05-13 17:00",12.732,"Working","OW484"
"2023-05-13 18:00",12.694,"Working","OW484"
"2023-05-13 19:00",12.678,"Working","OW484"
"2023-05-13 20:00",12.672,"Working","OW484"
"2023-05-13 21:00",12.695,"Working","OW484"
"2023-05-13 22:00",12.679,"Working","OW484"
"2023-05-13 23:00",12.667,"Working","OW484"
"2023-05-14 00:00",12.738,"Working","OW484"
"2023-05-14 01:00",12.733,"Working","OW484"
"2023-05-14 02:00",12.705,"Working","OW484"
"2023-05-14 03:00",12.69,"Working","OW484"
"2023-05-14 04:00",12.749,"Working","OW484"
"2023-05-14 05:00",12.711,"Working","OW484"
"2023-05-14 06:00",12.704,"Working","OW484"
"2023-05-14 07:00",12.698,"Working","OW484"
"2023-05-14 08:00",12.698,"Working","OW484"
"2023-05-14 09:00",12.692,"Working","OW484"
"2023-05-14 10:00",12.694,"Working","OW484"
"2023-05-14 11:00",12.69,"Working","OW484"
"2023-05-14 12:00",12.691,"Working","OW484"
"2023-05-14 13:00",12.687,"Working","OW484"
"2023-05-14 14:00",12.724,"Working","OW484"
"2023-05-14 15:00",12.708,"Working","OW484"
"2023-05-14 16:00",12.742,"Working","OW484"
"2023-05-14 17:00",12.718,"Working","OW484"
"2023-05-14 18:00",12.712,"Working","OW484"
"2023-05-14 19:00",12.704,"Working","OW484"
"2023-05-14 20:00",12.748,"Working","OW484"
"2023-05-14 21:00",12.717,"Working","OW484"
"2023-05-14 22:00",12.745,"Working","OW484"
"2023-05-14 23:00",12.715,"Working","OW484"
"2023-05-15 00:00",12.775,"Working","OW484"
"2023-05-15 01:00",12.73,"Working","OW484"
"2023-05-15 02:00",12.721,"Working","OW484"
"2023-05-15 03:00",12.814,"Working","OW484"
"2023-05-15 04:00",12.798,"Working","OW484"
"2023-05-15 05:00",12.769,"Working","OW484"
"2023-05-15 06:00",12.782,"Working","OW484"
"2023-05-15 07:00",12.761,"Working","OW484"
"2023-05-15 08:00",12.754,"Working","OW484"
"2023-05-15 09:00",12.747,"Working","OW484"
"2023-05-15 10:00",12.745,"Working","OW484"
"2023-05-15 11:00",12.74,"Working","OW484"
"2023-05-15 12:00",12.74,"Working","OW484"
"2023-05-15 13:00",12.737,"Working","OW484"
"2023-05-15 14:00",12.784,"Working","OW484"
"2023-05-15 15:00",12.758,"Working","OW484"
"2023-05-15 16:00",12.754,"Working","OW484"
"2023-05-15 17:00",12.777,"Working","OW484"
"2023-05-15 18:00",12.767,"Working","OW484"
"2023-05-15 19:00",12.759,"Working","OW484"
"2023-05-15 20:00",12.811,"Working","OW484"
"2023-05-15 21:00",12.776,"Working","OW484"
"2023-05-15 22:00",12.768,"Working","OW484"
"2023-05-15 23:00",12.758,"Working","OW484"
"2023-05-16 00:00",12.757,"Working","OW484"
"2023-05-16 01:00",12.752,"Working","OW484"
"2023-05-16 02:00",12.819,"Working","OW484"
"2023-05-16 03:00",12.833,"Working","OW484"
"2023-05-16 04:00",12.806,"Working","OW484"
"2023-05-16 05:00",12.795,"Working","OW484"
"2023-05-16 06:00",12.792,"Working","OW484"
"2023-05-16 07:00",12.797,"Working","OW484"
"2023-05-16 08:00",12.837,"Working","OW484"
"2023-05-16 09:00",12.814,"Working","OW484"
"2023-05-16 10:00",12.813,"Working","OW484"
"2023-05-16 11:00",12.808,"Working","OW484"
"2023-05-16 12:00",12.809,"Working","OW484"
"2023-05-16 13:00",12.806,"Working","OW484"
"2023-05-16 14:00",12.81,"Working","OW484"
"2023-05-16 15:00",12.807,"Working","OW484"
"2023-05-16 16:00",12.812,"Working","OW484"
"2023-05-16 17:00",12.812,"Working","OW484"
"2023-05-16 18:00",12.869,"Working","OW484"
"2023-05-16 19:00",12.837,"Working","OW484"
"2023-05-16 20:00",12.83,"Working","OW484"
"2023-05-16 21:00",12.821,"Working","OW484"
"2023-05-16 22:00",12.819,"Working","OW484"
"2023-05-16 23:00",12.811,"Working","OW484"
"2023-05-17 00:00",12.812,"Working","OW484"
"2023-05-17 01:00",12.84,"Working","OW484"
"2023-05-17 02:00",12.827,"Working","OW484"
"2023-05-17 03:00",12.89,"Working","OW484"
"2023-05-17 04:00",12.852,"Working","OW484"